Location: Austin
(30.3000°N, 97.7500°W)
Time: 21:38:18
(UTC-06:00)

Cosmos 1763 Rocket - Pass Details

Date: 03 December 2025
Orbit: 728 x 774 km, 74.0° (Epoch: 07 December)

Event Time Altitude Azimuth Distance (km) Brightness Sun altitude
Exits shadow 05:03:03 78° 23° (NNE) 793 3.4 -27.2°
Drops below altitude 10° 05:07:57 10° 16° (NNE) 2,313 6.0 -26.1°
Sets 05:10:19 0° 17° (NNE) 3,237 6.8 -25.6°
